星链-30151 (STARLINK-30151 )

导读 | 星芒AI

STARLINK-30151 是 SpaceX Starlink 卫星互联网项目中的一颗低轨卫星。它属于 Starlink 群体中的一代卫星,旨在为全球用户提供高速互联网服务。该卫星于2023年发射,运行在约550公里高的轨道上,采用先进的通信技术,支持宽带数据传输。Starlink 项目致力于改善偏远地区的网络接入,减少全球数字鸿沟。STARLINK-30151 与其他 Starlink 卫星协同工作,提升网络覆盖与连接稳定性。

基本信息
目录编号:
56827
目录名称:
STARLINK-30151
国际标识:
2023-079E
轨道中心:
EARTH
卫星名称:
星链-30151
卫星全名:
星链-30151 (STARLINK-30151 )
卫星状态:
在轨 (已飞行879 天)
发射日期:
2023-06-04 UTC
国别 :
美国 (US)
星等 :
--
轨道信息
数据来源 国际轨道数据
星历时间: 2025-10-30T10:52:37+0800
12小时前
查看轨道信息
半长轴: 6937.218km
偏心率: 0.0001251
轨道倾角: 43.004°
近地点辐角 268.000°
升交点赤经 96.816°
平近点角 92.070°
近地点: 558.215km
远地点: 559.951km
周期: 95.838分钟
每日圈数: 15.025358
详细信息
固有亮度:
5
最大亮度:
0.5
卫星平台:
Starlink v2.0 mini
覆盖范围:
全球
运营商:
太空探索技术公司
运营商所在国:
美国
制造商(研发单位):
太空探索技术公司
制造商所在国:
美国
使用方式:
暂无
卫星简介
星链(Starlink)计划是由太空探索技术公司(SpaceX)提出的一个巨型低轨卫星互联网星座项目,计划在2019年至2024年间在太空搭建由约1.2万颗卫星组成的“星链”网络,其中1584颗将部署在地球上空550千米处的近地轨道,并从2020年开始工作。该卫星仍在工作。
2D轨道图
3D轨道图
轨道高度分析图
轨道倾角分析图
轨道综合分析图
查看轨道综合分析图